[[{"header":{"parameterUnit":"m.s-1","parameterCategory":1,"la1":30.2991,"la2":30.254,"lo1":-89.0895,"lo2":-89.0444,"dy":0.0017,"dx":0.0017,"nx":28,"ny":28,"refTime":"2023-10-13T09:00:00:Z","depth":0,"parameterNumber":2,"parameterNumberName":"U-component_of_WINDS"},"data":[0,0,0,0,0,0,0,0,0,0,0,0,0,0,0,0,0,0,0,0,0,0,0,0,0,0,0,0,0,0,0,0,0,0,0,0,0,0,0,0,0,0,0,0,0,0,0,0,0,0,0,0,0,0,0,0,0,0,1.7459,1.7459,0,1.7497,1.7497,1.7498,1.7483,1.7482,1.7481,1.7481,1.7518,1.7519,1.7521,0,0,0,0,0,0,0,0,0,0,0,0,0,1.7371,1.7373,1.7459,1.7459,1.746,1.7497,1.7497,1.7498,1.7483,1.7482,1.7481,1.748,1.7517,1.7519,1.7521,0,0,0,0,0,0,0,0,0,0,0,0,0,1.7409,1.7373,1.7459,1.7457,1.7457,1.7497,1.7497,1.7498,1.7483,1.7482,1.7481,1.748,1.7516,1.7519,1.7522,1.7564,0,0,1.753,1.7531,0,0,0,0,0,0,0,0,1.7407,1.7412,1.7457,1.7457,1.7458,1.7484,1.748,1.752,1.7484,1.7473,1.7481,1.7479,1.7507,1.7511,1.7521,1.7566,1.7568,1.753,1.7532,1.7533,1.7534,0,0,0,0,0,0,0,1.7404,1.7411,1.7474,1.7457,1.7458,1.7453,1.7457,1.7487,1.7497,1.7474,1.7473,1.7478,1.7507,1.7518,1.7521,1.7568,1.753,1.7533,1.7534,1.7535,1.7648,1.7649,0,0,0,0,0,0,1.7402,1.7408,1.7473,1.7475,1.7429,1.7456,1.746,1.7477,1.7497,1.7499,1.7479,1.7477,1.7514,1.7518,1.7523,1.7572,1.7533,1.7535,1.7537,1.7647,1.7648,1.765,0,0,0,0,0,0,1.74,1.7408,1.7471,1.7441,1.7449,1.7459,1.7477,1.7478,1.7489,1.7501,1.7502,1.7489,1.7513,1.7519,1.7554,1.7573,1.7537,1.7539,1.7645,1.7647,1.7649,1.7673,0,0,0,0,0,0,1.7398,1.7407,1.7424,1.7442,1.7451,1.7502,1.7479,1.748,1.7494,1.7492,1.751,1.7511,1.7513,1.755,1.7556,1.7576,1.7541,1.7643,1.7646,1.7648,1.767,1.7675,1.768,0,0,0,0,0,1.7394,1.743,1.7425,1.7433,1.7473,1.7504,1.7509,1.751,1.7496,1.7512,1.7519,1.7511,1.757,1.7553,1.7561,1.7582,1.7642,1.7645,1.7648,1.7668,1.7674,1.7679,0,0,0,0,0,0,1.7414,1.7432,1.7427,1.7469,1.7485,1.7501,1.7522,1.7517,1.7536,1.7533,1.7533,1.7538,1.7573,1.7581,1.7562,1.7623,1.7604,1.7609,1.7616,1.7622,1.7627,1.7624,1.7544,0,0,0,0,0,1.7423,1.7448,1.7462,1.7497,1.7506,1.7513,1.7526,1.7526,1.7541,1.7548,1.7558,1.7573,1.7595,1.7609,1.763,1.7671,1.7674,1.7689,1.7694,1.7698,1.7702,1.7722,1.7728,1.766,1.766,1.766,0,0,1.7443,1.7455,1.7471,1.7502,1.7514,1.7538,1.7518,1.7545,1.7562,1.7552,1.7585,1.7593,1.7609,1.7647,1.7664,1.7655,1.7721,1.7702,1.7705,1.7706,1.7725,1.7732,1.7738,1.7662,1.7662,1.7661,0,0,1.7489,1.7503,1.7533,1.7545,1.7563,1.7567,1.7574,1.7591,1.7596,1.7629,1.7621,1.7641,1.768,1.7691,1.7702,1.7752,1.7744,1.7758,1.7783,1.7802,1.7808,1.7812,1.7828,1.7834,1.7762,1.7762,1.7762,0,1.7511,1.7548,1.7549,1.7576,1.7588,1.758,1.7609,1.7621,1.7645,1.7654,1.7643,1.769,1.7701,1.774,1.7752,1.7762,1.7768,1.7756,1.7807,1.7812,1.7816,1.7831,1.7837,1.7764,1.7764,1.7763,1.7763,0,1.7572,1.7597,1.7619,1.7642,1.7658,1.7686,1.769,1.7705,1.7703,1.7708,1.7741,1.7753,1.7776,1.7785,1.7784,1.7823,1.7817,1.7807,1.7787,1.7824,1.7838,1.7844,1.7766,1.7765,1.7765,1.7765,0,0,1.7633,1.7655,1.7663,1.7672,1.7691,1.771,1.7737,1.7759,1.7771,1.7788,1.7809,1.7841,1.7831,1.7844,1.7843,1.7861,1.7896,1.7848,1.7848,1.7855,1.7939,1.7945,1.7952,1.7892,1.7893,1.7894,1.7937,0,1.768,1.7727,1.7728,1.7771,1.7793,1.7785,1.7808,1.7821,1.7826,1.7845,1.785,1.7872,1.7859,1.7866,1.7883,1.7888,1.7913,1.7885,1.791,1.7911,1.7905,1.7959,1.7967,1.8007,1.7942,1.7943,1.7944,0,1.7741,1.7759,1.7804,1.7818,1.7827,1.7848,1.7867,1.7886,1.79,1.7902,1.7915,1.7912,1.7937,1.7918,1.7952,1.7934,1.7944,1.7948,1.795,1.7951,1.7929,1.796,1.802,1.8025,1.7953,1.7952,1.7952,0,1.7778,1.7814,1.7845,1.7854,1.7871,1.7885,1.7893,1.7906,1.7919,1.7935,1.7943,1.7962,1.7972,1.7987,1.7988,1.7974,1.8022,1.8003,1.8023,1.8023,1.8033,1.8032,1.8093,1.8042,1.8042,1.8042,1.8042,0,1.783,1.7857,1.7862,1.7881,1.791,1.7911,1.794,1.7947,1.7958,1.7977,1.7971,1.7989,1.799,1.8008,1.8009,1.8036,1.8041,1.8043,1.8042,1.8042,1.8042,1.8048,1.8045,1.8043,1.8043,1.8043,1.8042,0,1.7876,1.788,1.7913,1.7927,1.7931,1.7952,1.7963,1.798,1.7984,1.8008,1.8014,1.802,1.804,1.8043,1.8067,1.8068,1.81,1.8098,1.8095,1.8094,1.8113,1.8111,1.8179,1.8187,1.8133,1.8133,1.8134,0,1.7908,1.7929,1.7944,1.7956,1.7965,1.7985,1.7997,1.7998,1.8011,1.8028,1.8043,1.8063,1.8079,1.8112,1.8118,1.8136,1.8133,1.8155,1.8135,1.8134,1.8131,1.8129,1.813,1.8159,1.8159,1.816,1.816,0,1.7964,1.7964,1.7983,1.8001,1.8016,1.8031,1.8044,1.8055,1.8057,1.8071,1.8092,1.8105,1.8129,1.8148,1.8165,1.8172,1.8166,1.8166,1.8172,1.8171,1.8168,1.8168,1.8104,1.8165,1.8164,1.8164,1.8164,1.8163,1.8003,1.802,1.8033,1.8052,1.8063,1.8075,1.8092,1.8097,1.8115,1.8135,1.8134,1.8156,1.8168,1.8191,1.8199,1.8216,1.8208,1.8216,1.8218,1.822,1.8221,1.8167,1.8219,1.8219,1.8219,1.8219,1.8219,0,1.8056,1.8064,1.8082,1.8101,1.8116,1.8109,1.8124,1.8137,1.8156,1.8168,1.8184,1.8207,1.8225,1.8232,1.825,1.8262,1.8259,1.8266,1.8264,1.8266,1.8227,1.822,1.8268,1.8268,1.8268,1.8268,1.8268,1.8268,1.8086,1.8114,1.8116,1.8148,1.8155,1.8177,1.8186,1.8196,1.8206,1.8232,1.8247,1.8251,1.8261,1.8278,1.8294,1.8296,1.8302,1.831,1.831,1.8274,1.8269,1.8264,1.8257,1.8311,1.8312,1.8346,1.8347,1.8347]},{"header":{"parameterUnit":"m.s-1","parameterCategory":1,"la1":30.2991,"la2":30.254,"lo1":-89.0895,"lo2":-89.0444,"dy":0.0017,"dx":0.0017,"nx":28,"ny":28,"refTime":"2023-10-13T09:00:00:Z","depth":0,"parameterNumber":3,"parameterNumberName":"V-component_of_WINDS"},"data":[0,0,0,0,0,0,0,0,0,0,0,0,0,0,0,0,0,0,0,0,0,0,0,0,0,0,0,0,0,0,0,0,0,0,0,0,0,0,0,0,0,0,0,0,0,0,0,0,0,0,0,0,0,0,0,0,0,0,1.5507,1.5506,0,1.5436,1.5435,1.5435,1.5385,1.5384,1.5384,1.5384,1.5308,1.5307,1.5305,0,0,0,0,0,0,0,0,0,0,0,0,0,1.5593,1.5592,1.5507,1.5506,1.5505,1.5436,1.5435,1.5434,1.5385,1.5384,1.5384,1.5383,1.5309,1.5307,1.5305,0,0,0,0,0,0,0,0,0,0,0,0,0,1.5543,1.5592,1.5507,1.5472,1.5468,1.5437,1.5435,1.5434,1.5385,1.5384,1.5384,1.5383,1.531,1.5307,1.5305,1.5301,0,0,1.5297,1.5296,0,0,0,0,0,0,0,0,1.5546,1.5539,1.5478,1.5474,1.547,1.5419,1.5438,1.5389,1.5385,1.5417,1.5384,1.5383,1.5345,1.534,1.5328,1.5298,1.5294,1.5297,1.5295,1.5294,1.5294,0,0,0,0,0,0,0,1.5549,1.5542,1.5479,1.5477,1.5472,1.5458,1.545,1.5429,1.5385,1.5414,1.541,1.5402,1.5343,1.533,1.5326,1.5293,1.5297,1.5295,1.5293,1.5292,1.5253,1.5253,0,0,0,0,0,0,1.5559,1.5545,1.5481,1.5477,1.5507,1.5457,1.5448,1.5436,1.5385,1.5377,1.5403,1.54,1.5335,1.5329,1.5323,1.5313,1.5294,1.5292,1.5291,1.5252,1.5253,1.5253,0,0,0,0,0,0,1.5561,1.5553,1.5484,1.551,1.55,1.5456,1.5443,1.5435,1.5422,1.5377,1.5369,1.5399,1.5334,1.5326,1.5306,1.531,1.5291,1.5289,1.5252,1.5252,1.5253,1.5296,0,0,0,0,0,0,1.5563,1.5555,1.5554,1.551,1.5499,1.547,1.5443,1.5434,1.5418,1.5414,1.5371,1.5363,1.5333,1.531,1.5304,1.5306,1.5287,1.5251,1.5252,1.5253,1.5294,1.5298,1.5301,0,0,0,0,0,1.5567,1.5569,1.5554,1.5547,1.5498,1.5471,1.5464,1.5431,1.5419,1.5417,1.5387,1.5364,1.5311,1.5309,1.5301,1.5303,1.5251,1.5252,1.5253,1.5292,1.5297,1.5301,0,0,0,0,0,0,1.5614,1.5563,1.5546,1.5534,1.5507,1.5462,1.5459,1.5437,1.5412,1.541,1.5368,1.5359,1.5342,1.532,1.5319,1.5295,1.5278,1.5277,1.531,1.5314,1.5318,1.5323,1.5285,0,0,0,0,0,1.5623,1.5606,1.5562,1.5556,1.5543,1.5504,1.5491,1.5467,1.5437,1.5425,1.5394,1.5365,1.5341,1.5326,1.5302,1.529,1.5278,1.5287,1.5291,1.5294,1.5294,1.5283,1.5285,1.5256,1.5256,1.5256,0,0,1.5641,1.5611,1.5603,1.5564,1.5541,1.5523,1.5494,1.5478,1.5463,1.5422,1.5401,1.5378,1.5341,1.5325,1.5316,1.5306,1.5299,1.5295,1.5298,1.5296,1.5284,1.5287,1.5289,1.5257,1.5257,1.5257,0,0,1.5665,1.5642,1.5633,1.561,1.5574,1.5548,1.5546,1.5503,1.5486,1.5465,1.5433,1.5414,1.5375,1.535,1.5332,1.5344,1.532,1.5337,1.5356,1.5346,1.5348,1.535,1.5352,1.5354,1.5337,1.5337,1.5337,0,1.5693,1.5666,1.5631,1.5616,1.5598,1.5561,1.555,1.5529,1.5487,1.5475,1.5465,1.5413,1.5386,1.5361,1.5364,1.5352,1.5346,1.5342,1.5351,1.5352,1.5353,1.5355,1.5356,1.5339,1.5339,1.5339,1.5339,0,1.57,1.5682,1.5679,1.5639,1.5622,1.5609,1.557,1.5556,1.5533,1.5507,1.5484,1.545,1.5417,1.541,1.5388,1.5381,1.5376,1.5359,1.5341,1.5359,1.5359,1.536,1.5342,1.5342,1.5341,1.534,0,0,1.5753,1.5694,1.5693,1.5674,1.5631,1.5615,1.5599,1.5567,1.5555,1.5527,1.5511,1.5477,1.546,1.544,1.5414,1.5405,1.5414,1.5388,1.5387,1.5393,1.5401,1.5414,1.5416,1.5398,1.5398,1.5398,1.5404,0,1.577,1.5741,1.5708,1.5689,1.567,1.5633,1.5619,1.559,1.5564,1.5543,1.5513,1.549,1.547,1.5457,1.5447,1.5415,1.5415,1.5414,1.538,1.538,1.539,1.5416,1.543,1.5438,1.5404,1.5404,1.5404,0,1.5786,1.5759,1.5739,1.5696,1.5687,1.5675,1.5642,1.5623,1.5587,1.5569,1.5545,1.5518,1.5496,1.548,1.5449,1.5449,1.5433,1.5415,1.5414,1.5409,1.5393,1.5411,1.544,1.5441,1.5405,1.5405,1.5405,0,1.5824,1.5784,1.5766,1.5751,1.57,1.5692,1.567,1.5635,1.5617,1.5587,1.5575,1.5543,1.5525,1.55,1.5463,1.5456,1.5435,1.5417,1.5417,1.5418,1.5414,1.5415,1.544,1.5406,1.5406,1.5406,1.5406,0,1.5846,1.5835,1.5782,1.5771,1.5756,1.5718,1.5703,1.5678,1.5646,1.5628,1.5593,1.5576,1.5529,1.5506,1.5477,1.5453,1.5446,1.5429,1.5421,1.5431,1.5434,1.542,1.5418,1.5406,1.5406,1.5406,1.5406,0,1.5887,1.5852,1.5829,1.5783,1.5771,1.5762,1.5721,1.5707,1.5679,1.5656,1.5648,1.5603,1.5573,1.5534,1.5492,1.5472,1.5452,1.5441,1.5464,1.546,1.5462,1.5462,1.5478,1.5477,1.5445,1.5446,1.5446,0,1.5903,1.5893,1.5845,1.5831,1.581,1.5788,1.577,1.573,1.5712,1.567,1.5661,1.5628,1.5601,1.5555,1.5517,1.5483,1.547,1.5478,1.5465,1.5475,1.5468,1.5469,1.5467,1.5481,1.5482,1.5482,1.5483,0,1.5934,1.5916,1.5892,1.5861,1.584,1.5814,1.5785,1.5775,1.5729,1.571,1.5679,1.5658,1.5615,1.5582,1.5544,1.5518,1.5492,1.5487,1.5485,1.5496,1.5509,1.55,1.5472,1.5487,1.5487,1.5486,1.5486,1.5486,1.5961,1.595,1.5915,1.5888,1.5862,1.5836,1.5821,1.579,1.5765,1.5727,1.5705,1.5675,1.5636,1.5582,1.5558,1.5532,1.5522,1.552,1.5519,1.5519,1.5521,1.5514,1.5525,1.5525,1.5525,1.5524,1.5524,0,1.5989,1.5964,1.594,1.5902,1.588,1.5858,1.5825,1.5807,1.5782,1.575,1.5723,1.5686,1.5654,1.5613,1.5577,1.5564,1.5551,1.5556,1.5556,1.555,1.5533,1.5538,1.5567,1.5567,1.5567,1.5567,1.5567,1.5567,1.6001,1.5981,1.5959,1.5924,1.5898,1.587,1.5852,1.5827,1.5801,1.5762,1.5736,1.5709,1.5672,1.5633,1.5602,1.559,1.5578,1.5586,1.5571,1.5556,1.5552,1.5548,1.5552,1.5584,1.5584,1.559,1.559,1.559]}]]